Regional Weather Roundup
Issued by NWS

Home | Current Version | Previous Version | Text Only | Print | Product List | Glossary On
Versions: 1 2 3 4 5 6 7 8 9 10 11 12 13 14 15 16 17 18 19 20 21 22 23 24 25 26 27 28 29 30 31 32 33 34 35 36 37 38 39 40 41 42 43 44 45 46 47 48 49 50
000
ASUS46 KSTO 210715
RWRCA

NORTHERN AND CENTRAL CA REGIONAL WEATHER ROUNDUP
NATIONAL WEATHER SERVICE SACRAMENTO CA
1100 PM PST MON FEB 20 2017

NOTE: FAIR INDICATES FEW OR NO CLOUDS BELOW 12,000 FEET WITH NO
SIGNIFICANT WEATHER AND/OR OBSTRUCTIONS TO VISIBILITY.

CAZ001-003-210800-
NORTHWEST AREA

CITY           SKY/WX    TMP DP  RH WIND       PRES   REMARKS
CRESCENT CITY  LGT RAIN  55  51  86 S29G40    29.63S
UKIAH          LGT RAIN  55  47  74 SW20G32   29.85R
$$

CAZ006-505>513-210800-
BAY AREA

CITY           SKY/WX    TMP DP  RH WIND       PRES   REMARKS
SANTA ROSA     RAIN      56  52  86 SW16G39   29.93R FOG
SAN RAFAEL     N/A       58  MM  MM MISG
NAPA           LGT RAIN  60  53  77 S28G41    29.97R
CONCORD        LGT RAIN  60  53  77 S22G36    30.00R
OAKLAND CITY   N/A      MM  MM  MM MISG
OAKLAND        MOCLDY    60  54  80 SW22G33   30.02R
SAN FRAN CITY  N/A       59  MM  77 MISG
SAN FRAN ARPT  LGT RAIN  60  52  74 S29G40    30.02R
LIVERMORE      MOCLDY    58  49  72 S14       30.04R
HAYWARD        MOCLDY    60  48  64 S13       30.03R
REDWOOD CITY   N/A       58  MM  85 MISG
MOFFETT ARPT   LGT RAIN  61  50  67 SW10G21   30.05R
SAN JOSE ARPT  LGT RAIN  60  50  69 SE14      30.06R
$$
CAZ034-037-514>518-210800-
CENTRAL COAST

CITY           SKY/WX    TMP DP  RH WIND       PRES   REMARKS
WATSONVILLE    CLOUDY    58  55  90 S12       30.12R
SALINAS        CLOUDY    58  55  90 E6        30.11R
MONTEREY       MOCLDY    60  52  74 S12G21    30.11R
SAN LUIS OBISP LGT RAIN  60  55  83 S13G18    30.21R
SANTA MARIA    MOCLDY    59  54  83 S20G28    30.22R
$$
CAZ015-016-210800-
NORTHERN SACRAMENTO VALLEY

CITY           SKY/WX    TMP DP  RH WIND       PRES   REMARKS
REDDING        MOCLDY    53  47  79 S23G36    29.73R
RED BLUFF      LGT RAIN  54  52  93 S21       29.79F
OROVILLE       PTCLDY    57  52  83 S25       29.92S
$$
CAZ016>018-210800-
SOUTHERN SACRAMENTO VALLEY

CITY           SKY/WX    TMP DP  RH WIND       PRES   REMARKS
AUBURN         CLOUDY    54  52  94 S18G31    30.00R
BEALE AFB      MOCLDY    56  53  87 S28       29.92R
LINCOLN        CLOUDY    55  52  88 S24G32    29.96R
MARYSVILLE     MOCLDY    57  52  83 S21G32    29.95R
SAC INTL ARPT  MOCLDY    57  54  89 S17       29.96R
MATHER AIRPORT MOCLDY    55  55 100 S17G25    30.01R
DOWNTOWN SAC   N/A       56  MM  MM MISG
SAC EXEC ARPT  MOCLDY    56  55  97 S12       30.00R
VACAVILLE      MOCLDY    59  52  77 S21G30    29.97S
TRAVIS AFB     MOCLDY    57  51  82 S18G26    29.97R
$$
CAZ019>021-210800-
SAN JOAQUIN VALLEY

CITY           SKY/WX    TMP DP  RH WIND       PRES   REMARKS
STOCKTON       CLOUDY    57  55  93 SE15G25   30.04R
MODESTO        CLOUDY    58  54  86 SE14G23   30.08R
MERCED         LGT RAIN  55  52  89 W7        30.12R
LEMOORE        CLOUDY    60  46  59 S14       30.16R
FRESNO         MOCLDY    60  44  55 S10       30.16R
HANFORD        CLOUDY    58  52  80 SE6       30.17R
PORTERVILLE    MOCLDY    55  48  77 SE8       30.19R
BAKERSFIELD    MOCLDY    65  51  60 E6        30.17S
$$
CAZ011-012-071-210800-
NORTHERN MOUNTAINS

CITY           SKY/WX    TMP DP  RH WIND       PRES   REMARKS
YREKA          CLOUDY    42  39  89 CALM      29.66R
MOUNT SHASTA   LGT RAIN  42  39  89 VRB3      29.69R
ALTURAS        LGT RAIN  37  35  92 S13       29.74S WCI  29
$$
CAZ011-012-071-210800-
SIERRA NEVADA MTNS

CITY           SKY/WX    TMP DP  RH WIND       PRES   REMARKS
BLUE CANYON    MIX PCPN  37  37 100 S26G45    29.95R WCI  25
TRUCKEE        RAIN      36  32  87 SW7       29.89R WCI  30
TAHOE VLY ARPT LGT SNOW  35  32  88 S15G33    29.90R FOG     WCI  25
MAMMOTH LAKES  LGT SNOW  32  30  94 CALM      30.11R
$$




USA.gov is the U.S. government's official web portal to all federal, state and local government web resources and services.